Jasper, AL

7:48 PM CDT on October 22, 2019 (GMT -0500)
Walker County-Bevill

Weather History for KJFX - September, 2019

Change the Weather History Date:

Wednesday, September 18, 2019

  Actual Average Record
Temperature  
Mean Temperature 85 °F -  
Max Temperature 104 °F 83 °F 98 °F (2018)
Min Temperature 66 °F 60 °F 41 °F (1981)
Cooling Degree Days 20    
Growing Degree Days 35 (Base 50)    
Moisture  
Dew Point 69 °F    
Average Humidity 72    
Maximum Humidity 100    
Minimum Humidity 29    
Precipitation  
Precipitation 0.00 in - - ()
Sea Level Pressure  
Sea Level Pressure 29.99 in    
Wind  
Wind Speed - ()    
Max Wind Speed -    
Max Gust Speed -    
Visibility 8.4 miles    
Events      
Averages and records for this station are not official NWS values.
T = Trace of Precipitation, MM = Missing Value Source: Averaged Metar Reports

Daily Weather History Graph

Daily Weather History Graph

Search for Another Location

Airport or City:

Astronomy

Sep. 18, 2019 Rise Set
Actual Time 6:34 AM CDT 6:51 PM CDT
Civil Twilight 6:09 AM CDT 7:16 PM CDT
Nautical Twilight 5:40 AM CDT 7:46 PM CDT
Astronomical Twilight 5:10 AM CDT 8:15 PM CDT
Moon 9:37 PM CDT (9/18) 10:27 AM CDT (9/18)
Length of Visible Light 13h 07m
Length of Day
12h 17m
Waning Gibbous, 82% of the Moon is Illuminated
Sep 18
Waning Gibbous
Sep 21
Last Quarter
Sep 28
New
Oct 5
First Quarter
Oct 13
Full

Hourly Weather History & Observations

Time (CDT) Temp. Heat Index Dew Point Humidity Pressure Visibility Wind Dir Wind Speed Gust Speed Precip Events Conditions
12:15 AM - - - N/A% 29.98 in 7.0 mi North - - N/A   Clear
12:35 AM 69.8 °F - 69.8 °F 100% 29.98 in 8.0 mi North - - N/A   Clear
12:55 AM 69.8 °F - 69.8 °F 100% 29.98 in 6.0 mi North - - N/A   Clear
1:35 AM 69.8 °F - 69.8 °F 100% 29.98 in 5.0 mi North - - N/A   Clear
1:55 AM 69.8 °F - 69.8 °F 100% 29.98 in 6.0 mi North - - N/A   Clear
2:15 AM 68.0 °F - 68.0 °F 100% 29.98 in 4.0 mi North - - N/A   Clear
2:35 AM 68.0 °F - 68.0 °F 100% 29.98 in 5.0 mi North - - N/A   Clear
2:55 AM 68.0 °F - 68.0 °F 100% 29.98 in 6.0 mi North - - N/A   Clear
3:15 AM 68.0 °F - 68.0 °F 100% 29.98 in 4.0 mi North - - N/A   Clear
3:35 AM 68.0 °F - 68.0 °F 100% 29.98 in 8.0 mi North - - N/A   Clear
3:55 AM 68.0 °F - 68.0 °F 100% 29.98 in 5.0 mi North - - N/A   Clear
4:15 AM 66.2 °F - 66.2 °F 100% 29.98 in 4.0 mi North - - N/A   Clear
4:35 AM 66.2 °F - 66.2 °F 100% 29.98 in 9.0 mi North - - N/A   Clear
4:55 AM 66.2 °F - 66.2 °F 100% 29.98 in 5.0 mi North - - N/A   Clear
5:15 AM 66.2 °F - 66.2 °F 100% 29.98 in 6.0 mi North - - N/A   Clear
5:35 AM 66.2 °F - 66.2 °F 100% 29.99 in 4.0 mi North - - N/A   Clear
5:55 AM 66.2 °F - 66.2 °F 100% 29.99 in 5.0 mi North - - N/A   Clear
6:35 AM 66.2 °F - 66.2 °F 100% 30.00 in 1.2 mi North - - N/A   Clear
6:55 AM 66.2 °F - 66.2 °F 100% 30.01 in 6.0 mi North - - N/A   Clear
7:15 AM 68.0 °F - 68.0 °F 100% 30.01 in 2.5 mi North - - N/A   Clear
7:35 AM 69.8 °F - 69.8 °F 100% 30.02 in 4.0 mi North - - N/A   Clear
7:55 AM 73.4 °F - 73.4 °F 100% 30.02 in 7.0 mi North - - N/A   Clear
8:15 AM 77.0 °F - 71.6 °F 83% 30.01 in 9.0 mi North - - N/A   Clear
8:35 AM 80.6 °F 84.6 °F 71.6 °F 74% 30.01 in 10.0 mi North - - N/A   Clear
8:55 AM 84.2 °F 89.6 °F 71.6 °F 66% 30.02 in 8.0 mi North - - N/A   Clear
9:15 AM 86.0 °F 90.4 °F 69.8 °F 58% 30.02 in 10.0 mi North - - N/A   Clear
9:35 AM 87.8 °F 93.8 °F 71.6 °F 58% 30.02 in 10.0 mi North - - N/A   Clear
9:55 AM 89.6 °F 94.7 °F 69.8 °F 52% 30.02 in 10.0 mi North - - N/A   Clear
10:15 AM 91.4 °F 96.8 °F 69.8 °F 49% 30.02 in 10.0 mi North - - N/A   Clear
10:35 AM 93.2 °F 97.7 °F 68.0 °F 44% 30.01 in 10.0 mi North - - N/A   Clear
11:15 AM 95.0 °F 99.5 °F 68.0 °F 41% 30.02 in 10.0 mi North - - N/A   Clear
11:35 AM 95.0 °F 101.3 °F 69.8 °F 44% 30.01 in 10.0 mi North - - N/A   Clear
11:55 AM 98.6 °F 102.8 °F 66.2 °F 35% 30.01 in 10.0 mi North - - N/A   Clear
12:15 PM 98.6 °F 102.8 °F 66.2 °F 35% 30.01 in 10.0 mi North - - N/A   Clear
12:35 PM 98.6 °F 102.8 °F 66.2 °F 35% 30.01 in 10.0 mi North - - N/A   Clear
12:55 PM 98.6 °F 102.8 °F 66.2 °F 35% 30.01 in 10.0 mi North - - N/A   Clear
1:15 PM 100.4 °F 106.3 °F 68.0 °F 35% 30.00 in 10.0 mi North - - N/A   Clear
1:35 PM 100.4 °F 106.3 °F 68.0 °F 35% 29.99 in 10.0 mi North - - N/A   Clear
1:55 PM 102.2 °F 106.9 °F 66.2 °F 31% 29.99 in 10.0 mi North - - N/A   Clear
2:15 PM 100.4 °F 104.9 °F 66.2 °F 33% 29.98 in 10.0 mi North - - N/A   Clear
2:35 PM 102.2 °F 106.9 °F 66.2 °F 31% 29.97 in 10.0 mi North - - N/A   Clear
2:55 PM 104.0 °F 108.9 °F 66.2 °F 29% 29.97 in 10.0 mi North - - N/A   Clear
3:15 PM 100.4 °F 103.6 °F 64.4 °F 31% 29.96 in 10.0 mi North - - N/A   Clear
3:35 PM 102.2 °F 105.5 °F 64.4 °F 29% 29.96 in 10.0 mi North - - N/A   Clear
3:55 PM 100.4 °F 103.6 °F 64.4 °F 31% 29.95 in 10.0 mi North - - N/A   Clear
4:15 PM 100.4 °F 103.6 °F 64.4 °F 31% 29.95 in 10.0 mi North - - N/A   Clear
4:35 PM 98.6 °F 100.0 °F 62.6 °F 30% 29.95 in 10.0 mi North - - N/A   Clear
4:55 PM 100.4 °F 103.6 °F 64.4 °F 31% 29.94 in 10.0 mi North - - N/A   Clear
5:15 PM 100.4 °F 103.6 °F 64.4 °F 31% 29.95 in 10.0 mi North - - N/A   Clear
5:35 PM 98.6 °F 101.0 °F 64.4 °F 32% 29.95 in 10.0 mi North - - N/A   Clear
6:15 PM 95.0 °F 98.5 °F 66.2 °F 39% 29.95 in 10.0 mi North - - N/A   Clear
6:35 PM 86.0 °F 91.8 °F 71.6 °F 62% 29.95 in 10.0 mi North - - N/A   Clear
6:55 PM 82.4 °F 87.2 °F 71.6 °F 70% 29.95 in 10.0 mi North - - N/A   Clear
7:15 PM 78.8 °F - 71.6 °F 78% 29.96 in 10.0 mi North - - N/A   Clear
7:35 PM 77.0 °F - 71.6 °F 83% 29.96 in 10.0 mi North - - N/A   Clear
7:55 PM 77.0 °F - 71.6 °F 83% 29.97 in 10.0 mi North - - N/A   Clear
8:15 PM 75.2 °F - 71.6 °F 89% 29.98 in 10.0 mi North - - N/A   Clear
8:35 PM 73.4 °F - 73.4 °F 100% 29.98 in 10.0 mi North - - N/A   Clear
8:55 PM 73.4 °F - 73.4 °F 100% 29.99 in 8.0 mi North - - N/A   Clear
9:15 PM 73.4 °F - 71.6 °F 94% 29.99 in 10.0 mi North - - N/A   Clear
9:35 PM 71.6 °F - 71.6 °F 100% 30.00 in 10.0 mi North - - N/A   Clear
9:55 PM 71.6 °F - 71.6 °F 100% 30.01 in 10.0 mi North - - N/A   Clear
10:15 PM 71.6 °F - 71.6 °F 100% 30.01 in 10.0 mi North - - N/A   Clear
10:35 PM 71.6 °F - 71.6 °F 100% 30.01 in 10.0 mi North - - N/A   Clear
10:55 PM 71.6 °F - 71.6 °F 100% 30.01 in 10.0 mi North - - N/A   Clear
11:15 PM 69.8 °F - 69.8 °F 100% 30.02 in 10.0 mi North - - N/A   Clear
11:35 PM 69.8 °F - 69.8 °F 100% 30.01 in 9.0 mi North - - N/A   Clear
11:55 PM 69.8 °F - 69.8 °F 100% 30.02 in 9.0 mi North - - N/A   Clear